Погода в Антипаюте

Погода в Антипаюте : погода сейчас, прогноз погоды и архив. Всё, что Вы хотите узнать о погоде в Антипаюте!

Хотите узнать прогноз погоды в Антипаюте? Тогда Вам сюда: Погода в Антипаюте

Поиск расширенной информации на нашем сайте:

Другие новости

Новости СМИ2

Главная страница сайта

Новости сайта

02.10.2013

Напоминаем, что на нашем новом сайте вы можете получить высокодетализированные прогнозы погоды по пунктам России, СНГ и мира (включающие важные для авиации метеовеличины, такие как направление и скорость ветра, видимость, явления погоды, количество и форма облачности, нижняя и верхняя граница облачности), а также ознакомиться с разнообразными материалами по авиационной метеорологии и подборкой полезных ссылок на эту тему.

Сайт Метеоцентр.Азия посвящён разработке технологий оптимизации авиаметеорологического обслуживания, включая проектирование и перспективное создание нескольких автоматизированных авиаметеорологических систем:
- система выпуска высокодетальных прогностических карт явлений погоды для нижнего воздушного пространства по России и ближнему зарубежью;
- система верификации прогнозов TAF (выпускаемых синоптиками официальных АМСГ РФ и ближнего зарубежья) и AUTOTAF (выпускаемых сайтом Метеоцентр.Азия) - выявление ошибок, онлайн-сопоставление с фактической погодой METAR, автоматическое внесение коррективов в прогнозы при резком отклонении фактической погоды от прогноза, подсчёт оправдываемости прогнозов по элементам и в целом;
- система обработки, анализа и отображения авиаметеорологической информации для применения провайдерами метеорологической информации.

Рекомендуем: Мини молочный завод минизаводы по переработке мини завод по переработке молока.

Погода в Антипаюте - сегодня

Время (UTC), дата Ветер
(°,м/с) 
Видим.   Явления Облачность Т
(°С)
Тd
(°С)
f(%) Тe
(°С)
Pmin
(гПа)
dP
(гПа)
Po
(мм)
O2
(г/м3)
Тmin Tmax R s Состояние
почвы
12 13.01.17 160 (Ю) 20000 м    4/0 средняя 
[Ac trans]
-29.4 -32.5 75 -35  1023.9  1.3  768  349           
15 13.01.17 160 (Ю) 20000 м    ясно 
-30.2 -33.4 74 -36  1024.8  0.8  768  350    -29.4       
18 13.01.17 150 (ЮВ) 20000 м    ясно 
-29.9 -33 74 -37  1025.8  769  350           
21 13.01.17 150 (ЮВ) 20000 м    ясно 
-29.3 -32.4 75 -37  1026.8  770  349           
00 14.01.17 160 (Ю) 20000 м    3/0 средняя 
[Ac trans]
-28.5 -31.5 75 -35  1028  1.1  771  349           
03 14.01.17 150 (ЮВ) 20000 м    3/0 средняя 
[Ac trans]
-28.5 -31.5 75 -36  1028.5  0.5  771  349  -30.3      43  равномерный
сухой снег
100% 
06 14.01.17 160 (Ю) 20000 м    ясно 
-30 -33.1 74 -38  1028.3  0.8  772  351           
09 14.01.17 160 (Ю) 10 км    ясно 
-30.6 -33.9 73 -39  1030.1  0.8  772  352           
12 14.01.17 160 (Ю) 5{10}  10 км    ясно 
-30.6 -33.8 73 -39  1030.2  0.1  772  352           
15 14.01.17 160 (Ю) 10 км    ясно 
-30.9 -34.1 73 -39  1030.5  0.4  773  353    -28.5       
18 14.01.17 160 (Ю) 5-10{10}  10 км    8/0 средняя 
[Ac As]
-29.2 -32.3 74 -37  1029.4  -1.1  772  350           
21 14.01.17 170 (Ю) 6{12}  4000 м  мгла  8/0 средняя 
[Ac As]
-28.1 -31 76 -37  1028.6  -0.8  771  348           
00 15.01.17 150 (ЮВ) 8-13{13}  4000 м  позёмок  9/0 средняя 
[Ac As]
-26.8 -29.6 77 -37  1026.7  -1.9  770  346           
03 15.01.17 160 (Ю) 7-13{14}  4000 м  слаб. снег  10/0 средняя 
[As op]
-24.7 -27.3 79 -34  1025.8  -0.9  769  343  -30.9    0.3  44  равномерный
сухой снег
100% 
06 15.01.17 160 (Ю) 8-13{14}  4000 м  слаб. снег  10/0 средняя 
[As op]
-23.9 -26.4 80 -33  1024.2  -1.6  768  341           
09 15.01.17 160 (Ю) 5{13}  4000 м  слаб. снег  10/10 240 м 
[Frnb|Ns]
-22.9 -25.2 81 -30  1023.9  -0.4  768  339           
12 15.01.17 170 (Ю) 7-11{11}  4000 м  слаб. снег  10/10 400 м 
[Ns]
-20.5 -22.6 83 -29  1022.9  -1  767  336           
15 15.01.17 170 (Ю) 6-11{12}  4000 м  слаб. снег  10/10 480 м 
[Ns]
-19.7 -21.7 84 -27  1021.7  -1.2  766  334    -19.7     
18 15.01.17 160 (Ю) 6{12}  4000 м  слаб. снег  10/0 средняя 
[As op]
-18.9 -20.9 84 -26  1020.9  -0.8  765  333           
21 15.01.17 170 (Ю) 4000 м    10/0 
-18.7 -20.7 84 -27  1020.5  765  333           
00 16.01.17 170 (Ю) 7-10{12}  4000 м  слаб. снег  10/0 средняя 
[As op]
-18.2 -20.1 85 -26  1020.2  -0.3  765  332           
03 16.01.17 170 (Ю) 7{11}  10 км  позёмок{снег}  10/0 средняя 
[Ac und]
-17.7 -19.5 86 -25  1020.4  0.2  765  331  -19.7       
06 16.01.17 170 (Ю) 5{10}  20000 м  {снег}  3/0 средняя 
[Ac trans]
-18.4 -20.3 85 -25  1020.5  0.2  765  332           
09 16.01.17 160 (Ю) 20000 м    3/0 средняя 
[Ac trans]
-20.3 -22.4 83 -26  1021.3  0.7  766  335           
12 16.01.17 170 (Ю) 20000 м    4/0 средняя 
[Ac trans]
-20.3 -22.4 83 -26  1021.5  0.2  766  335           
Время (UTC), дата Ветер
(°,м/с) 
Видим.   Явления Облачность Т
(°С)
Тd
(°С)
f(%) Тe
(°С)
Pmin
(гПа)
dP
(гПа)
Po
(мм)
O2
(г/м3)
Тmin Tmax R s Состояние
почвы

Для получения пояснительной информации подведите курсор к названию столбца.

ПОГОДА в Антипаюте - архив

Всё, что Вы хотите узнать о погоде в Антипаюте - удобно и подробно!

Выберите нужную дату (начиная с 1 января 2015* года) и нажмите кнопку "Найти".
Будут отображены архивные сводки погоды по пункту Антипаюта, начиная с указанной даты.


Отображать данные в формате CSV (для использования в таблицах Excel)


Внимание! Наш архив погоды предназначен исключительно для личного некоммерческого использования в познавательных целях. Если Вам необходимы официальные справки о состоянии погоды (для производственных, юридических, коммерческих и т.п. целей), обращайтесь в органы Росгидромета.

*Примечание: данная дата относится к архиву по метеостанциям СССР (Россия, СНГ, Балтия).
Архив по метеостанциям Зарубежной Европы и Азии (кроме Китая) хранится 10 дней, по другим регионам земного шара (Китай, Африка, Америка, Австралия, Океания) - 1 день.

Антипаюта - район местоположения метеостанции


Название, широта, долгота, высота метеостанции:
Антипаюта 69.2°ш. 77°д. 4 м над ур. моря [Российская Федерация]

Дополнительная информация

В oтличие oт бoльшинства пoгoдных сайтoв мы публикуем пoдрoбную метеoинфoрмацию в детальнoм прoфессиoнальнoм фoрмате.

Характеристики температуры и влажнoсти вoздуха измеряются на высoте 2 м в тени вдали oт зданий и деревьев.
Скoрoсть ветра измеряется на высoте 10 м (на урoвне рoста челoвека скoрoсть ветра ниже в 1.5-2 раза). Если метеoстанция нахoдится в гoрoде или в лесу, тo скoрoсть ветра занижена на 2-4 м/с пo сравнению с oткрытым местoм. Скoрoсть ветра над акватoриями крупных рек и oзёр, а также на вершинах хoлмoв на 2-5 м/с выше, чем в oбычных услoвиях.
Атмoсфернoе давление в разных тoчках местнoсти мoжет значительнo oтличаться oт давления на метеoстанции, в зависимoсти oт услoвий рельефа (при пoдъёме на 10 м давление пoнижается примернo на 1 мм рт.ст.).